| time (UTC) | temp F | wind direction | speed MPH | gust MPH | rain 1hr in | rain 24hr in | rain mn in | humidity % | barometer mb |
| 20260903194623 | 56 | 285 | 0.0 | 1.0 | 0.00 | 0.00 | 0.00 | 78 | 1019.9 |
| 20260903193554 | 57 | 285 | 0.0 | 1.0 | 0.00 | 0.00 | 0.00 | 77 | 1020.0 |
| 20260903190248 | 58 | 272 | 0.0 | 3.0 | 0.00 | 0.00 | 0.00 | 75 | 1019.9 |
| 20260903185256 | 58 | 269 | 0.0 | 2.0 | 0.00 | 0.00 | 0.00 | 76 | 1019.7 |
| 20260903184309 | 57 | 264 | 0.0 | 0.0 | 0.00 | 0.00 | 0.00 | 76 | 1019.8 |
| 20260903183237 | 58 | 264 | 0.0 | 1.0 | 0.00 | 0.00 | 0.00 | 76 | 1019.4 |
| 20260903182206 | 58 | 264 | 0.0 | 1.0 | 0.00 | 0.00 | 0.00 | 76 | 1019.5 |
| 20260903181159 | 58 | 251 | 0.0 | 1.0 | 0.00 | 0.00 | 0.00 | 74 | 1019.3 |
| 20260903180146 | 59 | 248 | 0.0 | 0.0 | 0.00 | 0.00 | 0.00 | 73 | 1019.4 |
| 20260903175137 | 60 | 248 | 0.0 | 0.0 | 0.00 | 0.00 | 0.00 | 72 | 1019.1 |
| 20260903173223 | 61 | 248 | 0.0 | 3.0 | 0.00 | 0.00 | 0.00 | 71 | 1018.9 |
| 20260903172226 | 61 | 241 | 0.0 | 3.0 | 0.00 | 0.00 | 0.00 | 70 | 1018.7 |
| 20260903171248 | 61 | 296 | 1.0 | 5.0 | 0.00 | 0.00 | 0.00 | 70 | 1018.8 |
| 20260903170230 | 61 | 230 | 2.0 | 5.0 | 0.00 | 0.00 | 0.00 | 70 | 1018.6 |
| 20260903165217 | 62 | 250 | 0.0 | 3.0 | 0.00 | 0.00 | 0.00 | 70 | 1018.9 |
| 20260903163129 | 62 | 224 | 0.0 | 2.0 | 0.00 | 0.00 | 0.00 | 67 | 1018.8 |
| 20260903162128 | 63 | 202 | 0.0 | 8.0 | 0.00 | 0.00 | 0.00 | 66 | 1018.9 |
| 20260903161129 | 63 | 252 | 0.0 | 5.0 | 0.00 | 0.00 | 0.00 | 66 | 1019.0 |
| 20260903160137 | 63 | 263 | 1.0 | 8.0 | 0.00 | 0.00 | 0.00 | 66 | 1018.9 |
| 20260903155156 | 63 | 172 | 0.0 | 2.0 | 0.00 | 0.00 | 0.00 | 66 | 1019.0 |
| 20260903153019 | 64 | 228 | 0.0 | 3.0 | 0.00 | 0.00 | 0.00 | 64 | 1019.1 |
| 20260903152033 | 64 | 219 | 2.0 | 5.0 | 0.00 | 0.00 | 0.00 | 64 | 1018.8 |
| 20260903151004 | 64 | 227 | 1.0 | 5.0 | 0.00 | 0.00 | 0.00 | 64 | 1018.6 |
| 20260903145941 | 65 | 232 | 1.0 | 4.0 | 0.00 | 0.00 | 0.00 | 63 | 1018.5 |
| 20260903144908 | 65 | 227 | 2.0 | 10.0 | 0.00 | 0.00 | 0.00 | 63 | 1018.4 |
| 20260903143920 | 65 | 161 | 2.0 | 10.0 | 0.00 | 0.00 | 0.00 | 62 | 1018.4 |
| 20260903142936 | 66 | 224 | 1.0 | 7.0 | 0.00 | 0.00 | 0.00 | 62 | 1018.2 |
| 20260903140836 | 66 | 202 | 2.0 | 8.0 | 0.00 | 0.00 | 0.00 | 60 | 1018.1 |
| 20260903135849 | 66 | 189 | 2.0 | 8.0 | 0.00 | 0.00 | 0.00 | 60 | 1018.0 |
| 20260903134909 | 67 | 224 | 1.0 | 7.0 | 0.00 | 0.00 | 0.00 | 60 | 1017.9 |
| 20260903132715 | 67 | 231 | 2.0 | 6.0 | 0.00 | 0.00 | 0.00 | 58 | 1017.8 |
| 20260903131712 | 67 | 226 | 2.0 | 4.0 | 0.00 | 0.00 | 0.00 | 59 | 1017.6 |
| 20260903130719 | 67 | 227 | 0.0 | 7.0 | 0.00 | 0.00 | 0.00 | 59 | 1017.7 |
| 20260903125734 | 66 | 251 | 1.0 | 7.0 | 0.00 | 0.00 | 0.00 | 59 | 1017.6 |
| 20260903124736 | 66 | 228 | 0.0 | 3.0 | 0.00 | 0.00 | 0.00 | 59 | 1017.3 |
| 20260903123704 | 67 | 309 | 0.0 | 0.0 | 0.00 | 0.00 | 0.00 | 58 | 1017.1 |
| 20260903122650 | 67 | 304 | 0.0 | 4.0 | 0.00 | 0.00 | 0.00 | 58 | 1016.9 |
| 20260903120635 | 67 | 324 | 1.0 | 4.0 | 0.00 | 0.00 | 0.00 | 59 | 1016.5 |
| 20260903114712 | 67 | 324 | 0.0 | 1.0 | 0.00 | 0.00 | 0.00 | 62 | 1016.5 |
| 20260903113732 | 68 | 281 | 0.0 | 0.0 | 0.00 | 0.00 | 0.00 | 61 | 1016.4 |
| 20260903112756 | 68 | 318 | 1.0 | 5.0 | 0.00 | 0.00 | 0.00 | 61 | 1016.3 |
| 20260903111816 | 68 | 326 | 1.0 | 3.0 | 0.00 | 0.00 | 0.00 | 60 | 1016.2 |
| 20260903105707 | 69 | 304 | 0.0 | 5.0 | 0.00 | 0.00 | 0.00 | 59 | 1015.8 |
| 20260903103623 | 70 | 316 | 2.0 | 5.0 | 0.00 | 0.00 | 0.00 | 58 | 1015.5 |
| 20260903101524 | 71 | 337 | 1.0 | 4.0 | 0.00 | 0.00 | 0.00 | 56 | 1015.3 |
| 20260903100511 | 71 | 299 | 1.0 | 5.0 | 0.00 | 0.00 | 0.00 | 55 | 1015.0 |
| 20260903095531 | 72 | 323 | 2.0 | 6.0 | 0.00 | 0.00 | 0.00 | 55 | 1014.8 |
| 20260903094537 | 72 | 309 | 2.0 | 6.0 | 0.00 | 0.00 | 0.00 | 54 | 1014.8 |
| 20260903091223 | 74 | 275 | 1.0 | 8.0 | 0.00 | 0.00 | 0.00 | 51 | 1014.3 |
| 20260903090239 | 74 | 317 | 2.0 | 8.0 | 0.00 | 0.00 | 0.00 | 51 | 1014.2 |
| 20260903085241 | 75 | 335 | 1.0 | 7.0 | 0.00 | 0.00 | 0.00 | 50 | 1014.0 |
| 20260903084209 | 75 | 314 | 2.0 | 7.0 | 0.00 | 0.00 | 0.00 | 49 | 1013.7 |
| 20260903083141 | 76 | 276 | 2.0 | 6.0 | 0.00 | 0.00 | 0.00 | 48 | 1013.5 |
| 20260903082204 | 76 | 318 | 1.0 | 7.0 | 0.00 | 0.00 | 0.00 | 47 | 1013.2 |
| 20260903081215 | 77 | 266 | 2.0 | 7.0 | 0.00 | 0.00 | 0.00 | 46 | 1013.0 |
| 20260903080206 | 77 | 290 | 2.0 | 11.0 | 0.00 | 0.00 | 0.00 | 45 | 1012.8 |
| 20260903075149 | 78 | 309 | 2.0 | 11.0 | 0.00 | 0.00 | 0.00 | 44 | 1012.4 |
| 20260903074154 | 78 | 312 | 3.0 | 9.0 | 0.00 | 0.00 | 0.00 | 43 | 1012.1 |
| 20260903073154 | 79 | 300 | 1.0 | 8.0 | 0.00 | 0.00 | 0.00 | 41 | 1011.9 |
| 20260903072207 | 80 | 244 | 2.0 | 11.0 | 0.00 | 0.00 | 0.00 | 38 | 1011.7 |
| 20260903071151 | 81 | 251 | 2.0 | 11.0 | 0.00 | 0.00 | 0.00 | 37 | 1011.5 |
| 20260903070215 | 81 | 300 | 3.0 | 10.0 | 0.00 | 0.00 | 0.00 | 36 | 1011.4 |
| 20260903065214 | 83 | 286 | 2.0 | 10.0 | 0.00 | 0.00 | 0.00 | 36 | 1011.2 |
| 20260903064225 | 84 | 295 | 2.0 | 10.0 | 0.00 | 0.00 | 0.00 | 34 | 1011.0 |
| 20260903060932 | 85 | 331 | 3.0 | 11.0 | 0.00 | 0.00 | 0.00 | 33 | 1010.7 |
| 20260903055900 | 85 | 276 | 3.0 | 9.0 | 0.00 | 0.00 | 0.00 | 32 | 1010.7 |
| 20260903054848 | 85 | 266 | 4.0 | 10.0 | 0.00 | 0.00 | 0.00 | 32 | 1010.6 |
| 20260903053909 | 86 | 242 | 5.0 | 15.0 | 0.00 | 0.00 | 0.00 | 31 | 1010.5 |
| 20260903050636 | 87 | 285 | 3.0 | 9.0 | 0.00 | 0.00 | 0.00 | 30 | 1010.2 |
| 20260903044708 | 86 | 229 | 4.0 | 15.0 | 0.00 | 0.00 | 0.00 | 31 | 1009.8 |
| 20260903043729 | 87 | 255 | 4.0 | 15.0 | 0.00 | 0.00 | 0.00 | 31 | 1009.7 |
| 20260903042738 | 87 | 258 | 4.0 | 11.0 | 0.00 | 0.00 | 0.00 | 30 | 1009.5 |
| 20260903040635 | 87 | 254 | 3.0 | 14.0 | 0.00 | 0.00 | 0.00 | 31 | 1009.5 |
| 20260903035630 | 87 | 274 | 2.0 | 12.0 | 0.00 | 0.00 | 0.00 | 32 | 1009.4 |
| 20260903034649 | 87 | 203 | 3.0 | 13.0 | 0.00 | 0.00 | 0.00 | 32 | 1009.4 |
| 20260903033703 | 87 | 180 | 4.0 | 20.0 | 0.00 | 0.00 | 0.00 | 32 | 1009.3 |
| 20260903032658 | 86 | 276 | 6.0 | 20.0 | 0.00 | 0.00 | 0.00 | 31 | 1009.3 |
| 20260903030447 | 86 | 249 | 5.0 | 20.0 | 0.00 | 0.00 | 0.00 | 34 | 1009.3 |
| 20260903024310 | 86 | 245 | 6.0 | 21.0 | 0.00 | 0.00 | 0.00 | 36 | 1009.1 |
| 20260903022100 | 85 | 256 | 5.0 | 16.0 | 0.00 | 0.00 | 0.00 | 38 | 1009.2 |
| 20260903020036 | 87 | 221 | 3.0 | 13.0 | 0.00 | 0.00 | 0.00 | 39 | 1009.2 |
| 20260903015058 | 86 | 341 | 4.0 | 12.0 | 0.00 | 0.00 | 0.00 | 39 | 1009.0 |
| 20260903011849 | 84 | 293 | 5.0 | 18.0 | 0.00 | 0.00 | 0.00 | 43 | 1009.2 |
| 20260903010842 | 83 | 328 | 8.0 | 22.0 | 0.00 | 0.00 | 0.00 | 43 | 1009.2 |
| 20260903005900 | 83 | 297 | 9.0 | 22.0 | 0.00 | 0.00 | 0.00 | 43 | 1009.1 |
| 20260903003751 | 82 | 304 | 9.0 | 32.0 | 0.00 | 0.00 | 0.00 | 44 | 1009.3 |
| 20260903002734 | 82 | 292 | 9.0 | 23.0 | 0.00 | 0.00 | 0.00 | 44 | 1009.4 |
| 20260903000640 | 82 | 341 | 7.0 | 19.0 | 0.00 | 0.00 | 0.00 | 45 | 1009.3 |
| 20260902235653 | 81 | 352 | 8.0 | 18.0 | 0.00 | 0.00 | 0.00 | 45 | 1009.5 |
| 20260902234624 | 81 | 278 | 7.0 | 16.0 | 0.00 | 0.00 | 0.00 | 46 | 1009.4 |
| 20260902233619 | 80 | 293 | 5.0 | 19.0 | 0.00 | 0.00 | 0.00 | 49 | 1009.7 |
| 20260902232603 | 79 | 336 | 6.0 | 19.0 | 0.00 | 0.00 | 0.00 | 50 | 1009.7 |
| 20260902231612 | 78 | 341 | 4.0 | 16.0 | 0.00 | 0.00 | 0.00 | 54 | 1009.9 |
| 20260902230600 | 78 | 313 | 3.0 | 10.0 | 0.00 | 0.00 | 0.00 | 54 | 1009.9 |
| 20260902224349 | 75 | 321 | 4.0 | 13.0 | 0.00 | 0.00 | 0.00 | 56 | 1010.0 |
| 20260902222245 | 74 | 310 | 2.0 | 8.0 | 0.00 | 0.00 | 0.00 | 58 | 1010.3 |
| 20260902221247 | 73 | 329 | 0.0 | 3.0 | 0.00 | 0.00 | 0.00 | 64 | 1010.5 |
| 20260902220248 | 71 | 338 | 0.0 | 3.0 | 0.00 | 0.00 | 0.00 | 67 | 1010.7 |
| 20260902214156 | 68 | 320 | 0.0 | 4.0 | 0.00 | 0.00 | 0.00 | 72 | 1010.4 |
| 20260902212119 | 66 | 319 | 0.0 | 4.0 | 0.00 | 0.00 | 0.00 | 74 | 1010.4 |
| 20260902211048 | 65 | 327 | 0.0 | 3.0 | 0.00 | 0.00 | 0.00 | 76 | 1010.5 |
| 20260902205043 | 64 | 317 | 0.0 | 2.0 | 0.00 | 0.00 | 0.00 | 76 | 1010.4 |
| 20260902204019 | 64 | 314 | 0.0 | 3.0 | 0.00 | 0.00 | 0.00 | 76 | 1010.3 |
| 20260902203018 | 64 | 302 | 0.0 | 3.0 | 0.00 | 0.00 | 0.00 | 75 | 1010.3 |
| 20260902202027 | 64 | 330 | 0.0 | 2.0 | 0.00 | 0.00 | 0.00 | 75 | 1010.4 |
| 20260902201044 | 65 | 330 | 0.0 | 1.0 | 0.00 | 0.00 | 0.00 | 74 | 1010.4 |
| 20260902200015 | 65 | 319 | 0.0 | 3.0 | 0.00 | 0.00 | 0.00 | 73 | 1010.6 |